Regional Weather Roundup
Issued by NWS State College, PA

Home | Current Version | Previous Version | Graphics & Text | Print | Product List | Glossary Off
Versions: 1 2 3 4 5 6 7 8 9 10 11 12 13 14 15 16 17 18 19 20 21 22 23 24 25 26 27 28 29 30 31 32 33 34 35 36 37 38 39 40 41 42 43 44 45 46 47 48 49 50

000
ASUS41 KCTP 251703
RWRCTP

REGIONAL WEATHER ROUNDUP
NATIONAL WEATHER SERVICE STATE COLLEGE PA
100 PM EDT WED APR 25 2018

Note: "fair" indicates few or no clouds below 12,000 feet with no
significant weather and/or obstructions to visibility.

* = STATION THAT DOES NOT REPORT PRECIPITATION /E.G. RAIN...SNOW...ETC/
    THUNDER OR FOG.

PAZ002>004-007>009-013>016-020>023-029>032-251800-
WESTERN PENNSYLVANIA

CITY           SKY/WX    TMP DP  RH WIND       PRES   REMARKS
ERIE           LGT RAIN  52  49  89 W7        29.83F FOG
MEADVILLE      CLOUDY    52  51  97 NW7       29.82F
FRANKLIN*      LGT RAIN  52  50  93 NW6       29.82F FOG
NEW CASTLE     CLOUDY    53  53 100 W6        29.84F FOG
BEAVER COUNTY  DRIZZLE   52  50  93 NW6       29.83F
BUTLER*        LGT RAIN  55  50  83 W6        29.82F
PITTSBURGH INT LGT RAIN  55  51  86 W10       29.82F
PITTSBURGH     CLOUDY    56  52  86 NW5       29.81F
INDIANA*       CLOUDY    59  52  77 CALM      29.83F
LATROBE        CLOUDY    57  50  77 CALM      29.82F
WASHINGTON CO* CLOUDY    58  50  75 NW8       29.85S
$$

PAZ004>006-010>012-017>019-024>028-033>037-041-042-045-046-049>053-251800-
CENTRAL PENNSYLVANIA

CITY           SKY/WX    TMP DP  RH WIND       PRES   REMARKS
BRADFORD       CLOUDY    54  47  77 VRB7      29.80F
DUBOIS         CLOUDY    54  50  86 W6        29.79F
CLEARFIELD     CLOUDY    54  50  86 SW3       29.80F
JOHNSTOWN      LGT RAIN  53  49  86 W8        29.79F
ALTOONA        CLOUDY    59  51  75 CALM      29.78F
STATE COLLEGE  CLOUDY    55  52  88 CALM      29.79F
WILLIAMSPORT   CLOUDY    58  53  84 CALM      29.76F
SELINSGROVE    CLOUDY    58  54  86 NW6       29.77F
FT INDIANTOWN  CLOUDY    58  57  97 N5        29.75F
CAPITAL CITY   CLOUDY    62  56  80 N6        29.75F
HARRISBURG     CLOUDY    60  56  86 NE7       29.74F
YORK           CLOUDY    59  57  93 NE7       29.74F
$$

PAZ038>040-043-044-047-048-054-055-060>062-067>071-251800-
EASTERN PENNSYLVANIA

CITY           SKY/WX    TMP DP  RH WIND       PRES   REMARKS
SCRANTON       CLOUDY    58  56  93 N6        29.77F
MOUNT POCONO   RAIN      52  52 100 E6        29.78F FOG
ALLENTOWN      LGT RAIN  59  56  89 NE9       29.76F FOG
QUAKERTOWN*    CLOUDY    57  59 100 NE5       29.76F FOG
READING        CLOUDY    59  59 100 N5        29.74F FOG
LANCASTER      CLOUDY    61  59  93 NE7       29.74F
COATESVILLE    CLOUDY    59  59 100 CALM      29.74F FOG
POTTSTOWN      CLOUDY    59  59 100 NE7       29.75F FOG
BLUE BELL      CLOUDY    59  59 100 NE5       29.75F
DOYLESTOWN     LGT RAIN  60  59  96 VRB3      29.74F
WILLOW GROVE   NOT AVBL
NORTH PHILA    CLOUDY    63  60  90 E6        29.74F FOG
PHILADELPHIA   CLOUDY    61  59  93 NE8       29.72F FOG
$$



USA.gov is the U.S. government's official web portal to all federal, state and local government web resources and services.